Content
SEND FEEDBACK

Daily
Averages
Monthly
Summary
United States of America

ALBANY, NEW YORK


Home > North America > United States > New York
Elevation: 275 feet     Latitude: 42 45N     Longitude: 073 48W

WEATHER
 
SELECT A DAY
Number of Records: 206,976;   Date Range: 1/1/95 - 8/30/14
 
SHARE

PRINT THIS DATA

[ ← Previous Day ]
WEATHER ALMANAC - FEBRUARY 24, 2013
[ Next Day → ]
[ °C ]   °F
Weather ElementAverageHighLow
Temperature33.5 °F37.9 °F (12:51 pm)32 °F (4:26 am)
Dewpoint29.4 °F33.1 °F (8:51 am)23 °F (4:51 pm)
Humidity85.4 %100 % (5:49 am)64 % (3:51 pm)
Barometer29.85 in29.99 in (11:51 pm)29.79 in (12:51 pm)
Wind Speed6.4 mph18.4 mph (2:51 pm)
Wind Gust24.2 mph (2:51 pm)
Weather ElementAverage
Visibility4.2 mi
Wind DirectionSSW (208.5 °)

Weather ElementTotal
Precipitation0.07 in
Heating Degree Days30.1 (Base 65)
Averaged from 40 records on February 24, 2013
WEATHER CONDITIONS BREAKOUT
WIND DIRECTION BREAKOUT
WEATHER BY HOUR - FEBRUARY 24, 2013
[ °C ]   °F
Local TimeTemperatureDewpointHumidityBarometerVisibilityWind DirectionWind SpeedGust SpeedPrecipitationEventsConditions
1:23 AM33.8 °F32.0 °F93 %29.86 in5.0 miNNE (20°)3.5 mph0.00 inRain-SnowLight Rain
1:51 AM33.1 °F32.0 °F96 %29.86 in6.0 miNorth (10°)3.5 mph0.01 inRainLight Rain
2:38 AM33.8 °F30.2 °F87 %29.84 in2.0 miCalm0.00 inFog-RainLight Rain
2:51 AM33.1 °F32.0 °F96 %29.85 in2.0 miCalm0.00 inFog-Rain-SnowLight Rain
3:28 AM33.8 °F30.2 °F87 %29.82 in2.0 miNorth (350°)3.5 mph0.01 inFog-RainLight Rain
3:51 AM33.1 °F32.0 °F96 %29.83 in1.5 miCalm0.01 inFog-Rain-SnowLight Rain
4:26 AM32.0 °F30.2 °F93 %29.83 in1.5 miCalm0.00 inFogLight Freezing Drizzle
4:51 AM32.0 °F30.9 °F96 %29.84 in1.2 miCalm0.02 inFog-SnowLight Snow
5:04 AM32.0 °F30.2 °F93 %29.83 in1.2 miCalm0.00 inFog-RainLight Freezing Rain
5:33 AM33.8 °F32.0 °F93 %29.83 in1.5 miCalm0.00 inFog-Rain-SnowLight Rain
5:49 AM32.0 °F32.0 °F100 %29.82 in1.5 miCalm0.01 inFog-Rain-SnowLight Freezing Rain
5:51 AM32.0 °F30.9 °F96 %29.84 in1.5 miCalm0.01 inFog-Rain-SnowLight Freezing Rain
6:31 AM32.0 °F30.2 °F93 %29.82 in1.0 miCalm0.00 inFogPatches of Fog
6:51 AM33.1 °F32.0 °F96 %29.83 in1.5 miNW (320°)4.6 mph0.00 inFogPatches of Fog
7:37 AM33.8 °F32.0 °F93 %29.83 in1.5 miNNW (340°)3.5 mphFogPatches of Fog
7:51 AM33.1 °F32.0 °F96 %29.84 in1.5 miNW (310°)3.5 mphFogPatches of Fog
8:07 AM33.8 °F32.0 °F93 %29.83 in0.5 miNW (320°)4.6 mphFogPatches of Fog
8:34 AM33.8 °F32.0 °F93 %29.82 in1.0 miNNW (330°)4.6 mphFogPatches of Fog
8:41 AM33.8 °F32.0 °F93 %29.82 in1.0 miNW (320°)4.6 mphOvercast
8:51 AM34.0 °F33.1 °F96 %29.83 in1.0 miNW (320°)5.8 mphOvercast
9:43 AM33.8 °F32.0 °F93 %29.81 in3.0 miNW (320°)5.8 mphOvercast
9:51 AM35.1 °F32.0 °F89 %29.81 in3.0 miNW (320°)3.5 mphOvercast
10:51 AM36.0 °F32.0 °F86 %29.81 in5.0 miCalmOvercast
11:51 AM37.0 °F33.1 °F86 %29.80 in6.0 miNW (320°)5.8 mphOvercast
12:51 PM37.9 °F32.0 °F79 %29.79 in9.0 miNW (310°)8.1 mphOvercast
1:51 PM37.9 °F28.9 °F70 %29.79 in10.0 miWNW (300°)15.0 mph20.7 mphOvercast
2:51 PM36.0 °F26.1 °F67 %29.81 in10.0 miWNW (300°)18.4 mph24.2 mphOvercast
3:51 PM35.1 °F24.1 °F64 %29.83 in10.0 miWNW (290°)12.7 mphOvercast
4:51 PM34.0 °F23.0 °F64 %29.85 in10.0 miNW (310°)13.8 mph17.3 mph0.00 inSnowLight Snow
5:33 PM33.8 °F24.8 °F70 %29.86 in2.0 miNW (310°)12.7 mph0.00 inSnowLight Snow
5:35 PM33.8 °F24.8 °F70 %29.86 in6.0 miNW (310°)12.7 mph0.00 inSnowLight Snow
5:51 PM33.1 °F25.0 °F72 %29.88 in6.0 miWNW (300°)11.5 mph23.0 mph0.00 inSnowLight Snow
6:34 PM32.0 °F26.6 °F80 %29.89 in2.5 miWest (280°)10.4 mph0.00 inSnowLight Snow
6:51 PM32.0 °F27.0 °F82 %29.91 in2.5 miWNW (290°)13.8 mph18.4 mph0.00 inSnowLight Snow
7:51 PM32.0 °F27.0 °F82 %29.94 in2.5 miWNW (290°)13.8 mph0.00 inSnowLight Snow
8:22 PM32.0 °F26.6 °F80 %29.93 in5.0 miWest (280°)11.5 mph0.00 inSnowLight Snow
8:51 PM32.0 °F26.1 °F79 %29.96 in8.0 miWNW (290°)9.2 mph0.00 inOvercast
9:51 PM32.0 °F25.0 °F75 %29.97 in10.0 miWNW (300°)13.8 mph20.7 mphOvercast
10:51 PM32.0 °F25.0 °F75 %29.98 in10.0 miWNW (290°)11.5 mphOvercast
11:51 PM32.0 °F25.0 °F75 %29.99 in10.0 miWNW (290°)10.4 mphOvercast
Hourly data recorded from KALB, located miles away from Albany, New York







STORIES FROM OUR PARTNERS